Flag for Saint Lucia Weather past 2 weeks in Castries, Saint Lucia

Now
81 °F

Passing clouds.


Feels Like: 86 °F
Forecast: 81 / 85 °F
Wind: 9 mph from East

Location: Vigie

Current Time: Jul 25, 2014 at 7:45:21 AM

Latest Report: Jul 25, 2014 at 7:00 AM


Visibility: N/A

Pressure: 30.01 "Hg

Humidity: 84%

Dew point: 75 °F

Location of CastriesLocation

Historic Weather in Castries — Graph

°F

Castries temperature yesterday

Maximum temperature yesterday: 88 °F (at 1:00 PM)
Minimum temperature yesterday: 79 °F (at 6:00 AM)
Average temperature yesterday: 83 °F

Past Weeks' High & Low Weather Summary

 TemperatureHumidityPressure
High88 °F (Jul 12, 12:00 PM)100% (Jul 17, 6:00 PM)30.09 "Hg (Jul 17, 6:00 PM)
Low77 °F (Jul 17, 7:00 AM)55% (Jul 13, 2:00 PM)29.56 "Hg (Jul 20, 5:00 AM)
Average84 °F73%30.03 "Hg
* Reported Jul 10 6:00 AM — Jul 25 6:00 AM, Castries, Weather by CustomWeather, © 2014

Note: Actual official high and low records may vary slightly from our data, if they occured in-between our weather recording intervals... More about our weather records

Advertising

Castries weather history for previous 24 hours

 ConditionsComfort  
Time TempWeatherWind HumidityBarometerVisibility
6:00 AM
Jul 25
81 °FPartly sunny.10 mph84%29.98 "HgN/A
8:00 PM
Jul 24
79 °FPartly cloudy.8 mph94%30.01 "HgN/A
7:30 PM79 °FLots of rain. Passing clouds.7 mph94%30.01 "Hg2 mi
7:00 PM81 °FPassing clouds.7 mph89%29.98 "HgN/A
6:00 PM82 °FScattered showers. Scattered clouds.10 mph79%29.98 "HgN/A
5:00 PM82 °FPartly sunny.8 mph84%29.95 "HgN/A
4:00 PM84 °FPartly sunny.8 mph79%29.95 "HgN/A
3:00 PM84 °FScattered clouds.9 mph74%29.95 "HgN/A
2:00 PM86 °FBroken clouds.10 mph70%29.98 "HgN/A
1:00 PM88 °FScattered clouds.12 mph66%29.98 "HgN/A
12:00 PM86 °FPartly sunny.10 mph70%30.01 "HgN/A
11:00 AM86 °FScattered clouds.12 mph70%30.01 "HgN/A
10:00 AM86 °FPartly sunny.10 mph75%30.04 "HgN/A
9:00 AM84 °FScattered clouds.8 mph79%30.01 "HgN/A
8:00 AM84 °FScattered clouds.7 mph79%30.01 "HgN/A
7:00 AM81 °FScattered clouds.No wind84%29.98 "HgN/A
Weather by CustomWeather, © 2014

See weather overviewHow to use our weather pages